LDPE-1

Last updated on Sun Oct 06 2024 00:02:42 GMT+0000 (Coordinated Universal Time)

1 49818U 21118B 24279.52369083 -.00000213 00000+0 00000+0 0 9998 2 49818 2.6344 86.5305 0004362 152.5294 237.4599 1.00518634 10425
UTC large
Height (km)
Speed (km/s)
/
Latitude / Longitude
Inclination (degrees)
Orbital Period (minutes)
Azimuth
Elevation
Range (km)
Doppler Factor

Next 0 passes for location: London (51.5072 / 0.1276)

Sorry there are no passes over London.